Location: Betzi
(47.2343°N, 9.5260°E)
Time: 21:30:24
(UTC+00:00)

Cosmos 2228 - Pass Details

Date: 27 May 2022
Orbit: 586 x 617 km, 82.5° (Epoch: 29 June)

Event Time Altitude Azimuth Distance (km) Brightness Sun altitude
Rises 02:08:13 0° 346° (NNW) 2,892 7.1 -11.6°
Reaches altitude 10° 02:10:29 10° 343° (NNW) 1,978 6.1 -11.4°
Maximum altitude 02:14:46 56° 266° (W) 728 3.2 -10.9°
Drops below altitude 10° 02:18:59 10° 188° (S) 1,944 5.1 -10.4°
Enters shadow 02:19:10 - 187° (S) 2,019 5.2 -10.4°
